Regional Weather Roundup
Issued by NWS Kansas City/Pleasant Hill, MO

Home | Current Version | Previous Version | Text Only | Print | Product List | Glossary On
Versions: 1 2 3 4 5 6 7 8 9 10 11 12 13 14 15 16 17 18 19 20 21 22 23 24 25 26 27 28
000
ASUS43 KEAX 171110
RWREAX

WEATHER ROUNDUP FOR EASTERN KANSAS AND NORTHWEST MISSOURI
NATIONAL WEATHER SERVICE KANSAS CITY/PLEASANT HILL MO
600 AM CDT TUE OCT 17 2017

KSZ040-057-103>105-MOZ028-029-037-043-171200-
...KANSAS CITY METROPOLITAN AREA...

CITY           SKY/WX    TMP DP  RH WIND       PRES   REMARKS
K.C. INTL      PTCLDY    46  40  79 S10       30.20S
K.C. DOWNTOWN  PTCLDY    52  41  66 S8        30.21R
LEES SUMMIT    PTCLDY    49  41  74 SW8       30.23R
OLATHE - IXD   PTCLDY    45  41  86 S7        30.22S
OLATHE - OJC   CLEAR     45  40  82 S7        30.22R
LAWRENCE       CLOUDY    46  42  86 E6        30.20S

$$

MOZ001>008-011>017-020>025-030>033-038>040-044>046-053-054-171200-
...NORTHERN AND CENTRAL MISSOURI...

CITY           SKY/WX    TMP DP  RH WIND       PRES   REMARKS
ST. JOSEPH     PTCLDY    45  42  89 S3        30.19S
MOSBY          MOSUNNY   43  41  93 CALM      30.22S
WARRENSBURG    CLEAR     45  41  87 S6        30.24S
WHITEMAN AFB   PTCLDY    46  41  84 S7        30.21S
CLINTON        CLEAR     41  39  93 CALM      30.26S
SEDALIA        CLOUDY    45  42  89 S9        30.26F
WARSAW         NOT AVBL
CHILLICOTHE      N/A     48  42  80 S5        30.23S
KIRKSVILLE     PTCLDY    48  42  80 SW6       30.23S

$$

MOZ041-047>049-056>058-063>065-088>090-097-171200-
...EASTERN AND SOUTHERN MISSOURI...

CITY           SKY/WX    TMP DP  RH WIND       PRES   REMARKS
ST. LOUIS INTL MOCLDY    51  38  60 S9        30.31R
SPIRIT OF STL  CLEAR     40  40 100 CALM      30.31R
COLUMBIA       CLOUDY    43  40  89 S6        30.27S
JEFFERSON CITY PTCLDY    42  39  89 SE7       30.29R
ROLLA          CLOUDY    44  38  79 S7        30.31R
OSAGE BEACH    CLOUDY    42  39  89 SE3       30.30R
SPRINGFIELD    CLOUDY    45  41  86 S8        30.28S
JOPLIN         MOCLDY    46  42  86 S5        30.28R
WEST PLAINS    CLOUDY    41  36  82 CALM      30.33S

$$

IAZ060-094-KSZ022-034>040-054-083-096-NEZ052-066-093-171200-
...KANSAS...SOUTHEAST NEBRASKA AND IOWA...

CITY           SKY/WX    TMP DP  RH WIND       PRES   REMARKS
TOPEKA         PTCLDY    52  41  66 CALM      30.19R
MANHATTAN      CLEAR     47  41  80 CALM      30.16R
EMPORIA        PTCLDY    48  38  68 S14       30.18F
CHANUTE        PTCLDY    48  41  76 S7        30.23F
WICHITA        CLEAR     46  42  86 S9        30.20R
OMAHA          CLEAR     47  39  74 SE9       30.12R
LINCOLN        CLEAR     48  40  73 CALM      30.11R
FALLS CITY     CLEAR     48  40  73 S8        30.14F
LAMONI         CLEAR     47  40  76 S10       30.18R
DES MOINES     CLEAR     51  40  65 S9        30.13S

$$





USA.gov is the U.S. government's official web portal to all federal, state and local government web resources and services.